Date String (YYYY-MM-DD hh:mm:ss) UTC,Instrument flags,absolute air pressure of the measurement (hPa),sample flow rate (lpm),inlet stack bypass flow (lpm),air temperature of the measurement (°C),ambient temperature measured by the external sensor (°C),aerosol sample conditioner tube jacket temperature (°C),OPC LED temperature (°C),internal box temperature (°C),relative humidity of the measurement (%),span deviation,mass concentration of particles derived from Lorenz-Mie calculation of OPC scattering (μg/m³),mass concentration of particles derived from Lorenz-Mie calculation of OPC scattering (μg/m³),mass concentration of particles derived from Lorenz-Mie calculation of OPC scattering (μg/m³)
DateTimeUTC,F1_M11,P_M11,Q1_M11,Q2_M11,T1_M11,T2_M11,T3_M11,T4_M11,T5_M11,U1_M11,ZSPAN_M11,X0_M11,X2_M11,X1_M11
2024-02-20 17:00:00,SystemResetWarning,0829.0,5.00,000.00,022.7,022.3,000.0,030.9,024.5,13.6,0000.0,0002.95,0000.93,0000.75
2024-02-20 17:01:00,SystemResetWarning,0828.9,5.02,000.00,022.8,022.3,000.0,030.9,024.6,13.3,0000.0,0001.44,0000.95,0000.75
2024-02-20 17:02:00,SystemResetWarning,0828.8,5.00,000.00,022.8,022.3,000.0,031.0,024.6,13.7,0000.0,0001.33,0000.94,0000.76
2024-02-20 17:03:00,SystemResetWarning,0829.0,5.00,000.00,022.8,022.4,000.0,031.0,024.6,13.2,0000.0,0001.24,0000.91,0000.76
2024-02-20 17:04:00,SystemResetWarning,0828.9,4.99,000.00,022.8,022.4,000.0,031.0,024.6,13.1,0000.0,0001.22,0000.90,0000.76
2024-02-20 17:05:00,SystemResetWarning,0829.0,4.99,000.00,022.8,022.4,000.0,031.0,024.6,13.5,0000.0,0001.27,0000.92,0000.75
2024-02-20 17:06:00,SystemResetWarning,0828.9,4.99,000.00,022.8,022.4,000.0,031.0,024.7,13.5,0000.0,0001.29,0000.93,0000.75
2024-02-20 17:07:00,SystemResetWarning,0828.9,5.02,000.00,022.9,022.4,000.0,031.0,024.7,13.1,0000.0,0001.29,0000.92,0000.75
2024-02-20 17:08:00,SystemResetWarning,0829.1,5.01,000.00,022.9,022.5,000.0,031.1,024.7,13.2,0000.0,0001.26,0000.91,0000.76
2024-02-20 17:09:00,SystemResetWarning,0829.1,5.00,000.00,022.9,022.5,000.0,031.1,024.7,13.3,0000.0,0001.23,0000.90,0000.75
2024-02-20 17:10:00,SystemResetWarning,0829.1,5.00,000.00,022.9,022.5,000.0,031.1,024.8,13.3,0000.0,0001.40,0000.90,0000.75
2024-02-20 17:11:00,SystemResetWarning,0829.1,4.99,000.00,022.9,022.5,000.0,031.1,024.8,13.2,0000.0,0001.42,0000.89,0000.75
2024-02-20 17:12:00,SystemResetWarning,0829.1,5.00,000.00,022.9,022.5,000.0,031.1,024.8,12.9,0000.0,0001.37,0000.87,0000.74
2024-02-20 17:13:00,SystemResetWarning,0828.9,5.00,000.00,023.0,022.6,000.0,031.1,024.8,12.8,0000.0,0001.39,0000.88,0000.74
2024-02-20 17:14:00,SystemResetWarning,0829.0,5.00,000.00,023.0,022.6,000.0,031.1,024.8,12.8,0000.0,0001.44,0000.90,0000.73
2024-02-20 17:15:00,SystemResetWarning,0829.0,5.01,000.00,023.0,022.6,000.0,031.2,024.8,13.1,0000.0,0001.43,0000.89,0000.73
2024-02-20 17:16:00,SystemResetWarning,0828.9,5.00,000.00,023.0,022.6,000.0,031.2,024.8,13.7,0000.0,0001.46,0000.89,0000.72
2024-02-20 17:17:00,SystemResetWarning,0829.0,4.99,000.00,023.0,022.6,000.0,031.2,024.9,14.4,0000.0,0001.50,0000.91,0000.72
2024-02-20 17:18:00,SystemResetWarning,0829.1,5.00,000.00,023.1,022.7,000.0,031.2,024.9,13.8,0000.0,0001.52,0000.91,0000.71
2024-02-20 17:19:00,SystemResetWarning,0829.0,5.01,000.00,023.1,022.7,000.0,031.2,024.9,13.0,0000.0,0001.53,0000.91,0000.70
2024-02-20 17:20:00,SystemResetWarning,0829.1,5.01,000.00,023.1,022.7,000.0,031.3,024.9,12.9,0000.0,0001.53,0000.91,0000.70
2024-02-20 17:21:00,SystemResetWarning,0829.0,5.00,000.00,023.1,022.7,000.0,031.3,024.9,13.0,0000.0,0001.43,0000.90,0000.69
2024-02-20 17:22:00,SystemResetWarning,0829.1,5.00,000.00,023.1,022.7,000.0,031.3,024.9,13.3,0000.0,0001.44,0000.90,0000.68
2024-02-20 17:23:00,SystemResetWarning,0829.1,4.99,000.00,023.2,022.7,000.0,031.3,024.9,13.2,0000.0,0001.51,0000.91,0000.67
2024-02-20 17:24:00,SystemResetWarning,0829.1,5.00,000.00,023.2,022.8,000.0,031.3,024.9,13.3,0000.0,0001.51,0000.90,0000.67
2024-02-20 17:25:00,SystemResetWarning,0829.1,5.00,000.00,023.2,022.8,000.0,031.3,024.9,13.3,0000.0,0001.61,0000.95,0000.69
2024-02-20 17:26:00,SystemResetWarning,0829.1,5.00,000.00,023.2,022.8,000.0,031.3,025.0,13.4,0000.0,0001.73,0001.03,0000.73
2024-02-20 17:27:00,SystemResetWarning,0829.1,5.00,000.00,023.3,022.8,000.0,031.3,025.0,13.6,0000.0,0001.78,0001.04,0000.73
2024-02-20 17:28:00,SystemResetWarning,0829.1,4.99,000.00,023.3,022.8,000.0,031.4,025.0,13.4,0000.0,0001.73,0001.01,0000.73
2024-02-20 17:29:00,SystemResetWarning,0829.1,5.00,000.00,023.3,022.9,000.0,031.4,025.0,13.5,0000.0,0001.91,0001.02,0000.73
2024-02-20 17:30:00,SystemResetWarning,0829.1,5.00,000.00,023.3,022.9,000.0,031.4,025.1,13.3,0000.0,0001.92,0001.01,0000.74
2024-02-20 17:31:00,SystemResetWarning,0829.1,5.00,000.00,023.3,022.9,000.0,031.4,025.1,13.5,0000.0,0001.98,0001.04,0000.74
2024-02-20 17:32:00,SystemResetWarning,0829.2,5.00,000.00,023.4,022.9,000.0,031.4,025.1,13.7,0000.0,0001.99,0001.05,0000.76
2024-02-20 17:33:00,SystemResetWarning,0829.2,4.99,000.00,023.4,023.0,000.0,031.5,025.1,14.7,0000.0,0001.95,0001.07,0000.77
2024-02-20 17:34:00,SystemResetWarning,0829.1,5.00,000.00,023.4,023.0,000.0,031.5,025.2,14.0,0000.0,0002.01,0001.11,0000.78
2024-02-20 17:35:00,SystemResetWarning,0829.1,5.00,000.00,023.4,023.0,000.0,031.5,025.2,14.4,0000.0,0002.80,0001.12,0000.80
2024-02-20 17:36:00,SystemResetWarning,0829.1,5.00,000.00,023.5,023.0,000.0,031.5,025.2,14.9,0000.0,0002.96,0001.10,0000.78
2024-02-20 17:37:00,SystemResetWarning,0829.1,5.00,000.00,023.5,023.0,000.0,031.6,025.3,14.3,0000.0,0002.84,0001.04,0000.77
2024-02-20 17:38:00,SystemResetWarning,0829.1,5.00,000.00,023.5,023.1,000.0,031.6,025.3,14.3,0000.0,0002.92,0001.06,0000.77
2024-02-20 17:39:00,SystemResetWarning,0829.1,5.00,000.00,023.5,023.1,000.0,031.6,025.3,14.9,0000.0,0002.91,0001.07,0000.79
2024-02-20 17:40:00,SystemResetWarning,0829.1,5.00,000.00,023.5,023.1,000.0,031.6,025.3,15.0,0000.0,0002.99,0001.12,0000.81
2024-02-20 17:41:00,SystemResetWarning,0829.1,5.00,000.00,023.6,023.1,000.0,031.6,025.3,14.6,0000.0,0003.40,0001.19,0000.85
2024-02-20 17:42:00,SystemResetWarning,0829.1,5.01,000.00,023.6,023.2,000.0,031.7,025.4,14.8,0000.0,0003.87,0001.27,0000.89
2024-02-20 17:43:00,SystemResetWarning,0829.1,5.00,000.00,023.6,023.2,000.0,031.7,025.4,14.7,0000.0,0004.12,0001.31,0000.94
2024-02-20 17:44:00,SystemResetWarning,0829.1,5.00,000.00,023.6,023.2,000.0,031.7,025.4,15.0,0000.0,0005.49,0001.37,0000.94
2024-02-20 17:45:00,SystemResetWarning,0829.2,4.99,000.00,023.6,023.2,000.0,031.7,025.5,14.9,0000.0,0005.88,0001.52,0001.00
2024-02-20 17:46:00,SystemResetWarning,0829.3,4.99,000.00,023.7,023.2,000.0,031.7,025.5,14.4,0000.0,0006.02,0001.60,0001.05
2024-02-20 17:47:00,SystemResetWarning,0829.3,5.00,000.00,023.7,023.3,000.0,031.8,025.5,14.3,0000.0,0005.30,0001.67,0001.10
2024-02-20 17:48:00,SystemResetWarning,0829.2,5.00,000.00,023.7,023.3,000.0,031.8,025.5,13.8,0000.0,0005.48,0001.74,0001.14
2024-02-20 17:49:00,SystemResetWarning,0829.1,5.00,000.00,023.7,023.3,000.0,031.8,025.5,13.2,0000.0,0005.65,0001.79,0001.18
2024-02-20 17:50:00,SystemResetWarning,0829.0,5.00,000.00,023.7,023.3,000.0,031.8,025.5,13.3,0000.0,0005.85,0001.88,0001.24
2024-02-20 17:51:00,SystemResetWarning,0829.1,5.00,000.00,023.7,023.3,000.0,031.9,025.5,13.3,0000.0,0006.63,0001.95,0001.31
2024-02-20 17:52:00,SystemResetWarning,0829.2,5.01,000.00,023.8,023.3,000.0,031.9,025.5,13.3,0000.0,0006.52,0002.02,0001.36
2024-02-20 17:53:00,SystemResetWarning,0829.1,5.00,000.00,023.8,023.4,000.0,031.9,025.5,12.6,0000.0,0006.08,0002.07,0001.43
2024-02-20 17:54:00,SystemResetWarning,0829.1,5.01,000.00,023.8,023.4,000.0,031.9,025.6,12.2,0000.0,0006.14,0002.13,0001.48
2024-02-20 17:55:00,SystemResetWarning,0829.1,5.00,000.00,023.8,023.4,000.0,031.9,025.5,12.1,0000.0,0005.03,0002.18,0001.55
2024-02-20 17:56:00,SystemResetWarning,0829.1,5.00,000.00,023.8,023.4,000.0,031.9,025.5,11.8,0000.0,0005.20,0002.14,0001.56
2024-02-20 17:57:00,SystemResetWarning,0829.1,5.00,000.00,023.8,023.4,000.0,032.0,025.6,11.5,0000.0,0005.16,0002.09,0001.53
2024-02-20 17:58:00,SystemResetWarning,0829.1,5.00,000.00,023.9,023.4,000.0,032.0,025.6,11.7,0000.0,0004.93,0002.03,0001.50
2024-02-20 17:59:00,SystemResetWarning,0829.1,5.01,000.00,023.9,023.4,000.0,032.0,025.6,12.0,0000.0,0004.84,0001.98,0001.47
